******** Week 356 almanac for PRN-1 ******** ID: 1 Health: 0 Eccentricity: 0.00146150589 Time of Applicability(s): 147456 Orbital Inclination(rad): 0.95845876 Rate of Right Ascen(r/s): -7.771752296e-09 SQRT(A) (m 1/2): 5153.585938 Right Ascen at Week(rad): -2.644525954 Argument of Perigee(rad): 0.01737150851 Mean Anom(rad): -0.2955983976 Af0(s): 0.000266800708 Af1(s/s): -3.637979e-12 week: 356 ******** Week 356 almanac for PRN-2 ******** ID: 2 Health: 0 Eccentricity: 0.01696681976 Time of Applicability(s): 147456 Orbital Inclination(rad): 0.9638995981 Rate of Right Ascen(r/s): -7.623174678e-09 SQRT(A) (m 1/2): 5153.563477 Right Ascen at Week(rad): -2.807124547 Argument of Perigee(rad): -0.833981088 Mean Anom(rad): 1.115268823 Af0(s): 2.336390381e-05 Af1(s/s): 7.275958e-12 week: 356 ******** Week 356 almanac for PRN-3 ******** ID: 3 Health: 0 Eccentricity: 0.006383419037 Time of Applicability(s): 147456 Orbital Inclination(rad): 0.9926737221 Rate of Right Ascen(r/s): -8.011762293e-09 SQRT(A) (m 1/2): 5153.592285 Right Ascen at Week(rad): -1.658210762 Argument of Perigee(rad): 1.205608157 Mean Anom(rad): -2.49641554 Af0(s): 0.0004589876587 Af1(s/s): -1.091394e-11 week: 356 ******** Week 356 almanac for PRN-4 ******** ID: 4 Health: 0 Eccentricity: 0.003718852997 Time of Applicability(s): 147456 Orbital Inclination(rad): 0.9705628271 Rate of Right Ascen(r/s): -7.966046103e-09 SQRT(A) (m 1/2): 5153.698242 Right Ascen at Week(rad): -0.5868982034 Argument of Perigee(rad): -2.897919657 Mean Anom(rad): 0.5289275115 Af0(s): 3.316166992e-05 Af1(s/s): 3.637979e-12 week: 356 ******** Week 356 almanac for PRN-5 ******** ID: 5 Health: 0 Eccentricity: 0.005364894867 Time of Applicability(s): 147456 Orbital Inclination(rad): 0.9792633744 Rate of Right Ascen(r/s): -8.114623721e-09 SQRT(A) (m 1/2): 5153.637695 Right Ascen at Week(rad): -1.717617314 Argument of Perigee(rad): 1.420939587 Mean Anom(rad): 1.161693089 Af0(s): -0.0001801281616 Af1(s/s): 0 week: 356 ******** Week 356 almanac for PRN-6 ******** ID: 6 Health: 0 Eccentricity: 0.003876209259 Time of Applicability(s): 147456 Orbital Inclination(rad): 0.9874066552 Rate of Right Ascen(r/s): -7.451738966e-09 SQRT(A) (m 1/2): 5153.581543 Right Ascen at Week(rad): -2.694778056 Argument of Perigee(rad): -0.6025878009 Mean Anom(rad): -1.137909645 Af0(s): -0.0004800905395 Af1(s/s): -3.637979e-12 week: 356 ******** Week 356 almanac for PRN-7 ******** ID: 7 Health: 0 Eccentricity: 0.02028417587 Time of Applicability(s): 147456 Orbital Inclination(rad): 0.9512083039 Rate of Right Ascen(r/s): -7.680319916e-09 SQRT(A) (m 1/2): 5153.589844 Right Ascen at Week(rad): 0.4215578445 Argument of Perigee(rad): -2.000366001 Mean Anom(rad): -2.032256023 Af0(s): -0.0001138048218 Af1(s/s): -3.637979e-12 week: 356 ******** Week 356 almanac for PRN-8 ******** ID: 8 Health: 0 Eccentricity: 0.0114941597 Time of Applicability(s): 147456 Orbital Inclination(rad): 0.943909911 Rate of Right Ascen(r/s): -8.091765626e-09 SQRT(A) (m 1/2): 5153.61377 Right Ascen at Week(rad): 2.469824418 Argument of Perigee(rad): 0.5109627838 Mean Anom(rad): 0.8097834399 Af0(s): 0.0003926643188 Af1(s/s): -3.637979e-12 week: 356 ******** Week 356 almanac for PRN-9 ******** ID: 9 Health: 0 Eccentricity: 0.003324985504 Time of Applicability(s): 147456 Orbital Inclination(rad): 0.9646605964 Rate of Right Ascen(r/s): -8.091765626e-09 SQRT(A) (m 1/2): 5153.520508 Right Ascen at Week(rad): -0.6509362837 Argument of Perigee(rad): 2.064312327 Mean Anom(rad): 1.412648376 Af0(s): 0.0006089688477 Af1(s/s): 0 week: 356 ******** Week 356 almanac for PRN-10 ******** ID: 10 Health: 0 Eccentricity: 0.01096582413 Time of Applicability(s): 147456 Orbital Inclination(rad): 0.9922183215 Rate of Right Ascen(r/s): -8.011762293e-09 SQRT(A) (m 1/2): 5153.600098 Right Ascen at Week(rad): -1.660719959 Argument of Perigee(rad): -2.259754437 Mean Anom(rad): 2.806944784 Af0(s): -0.0004635097046 Af1(s/s): -3.637979e-12 week: 356 ******** Week 356 almanac for PRN-11 ******** ID: 11 Health: 0 Eccentricity: 0.002229690552 Time of Applicability(s): 147456 Orbital Inclination(rad): 0.9642471406 Rate of Right Ascen(r/s): -7.703178011e-09 SQRT(A) (m 1/2): 5153.518555 Right Ascen at Week(rad): -2.675368106 Argument of Perigee(rad): -2.287069482 Mean Anom(rad): -0.1187213496 Af0(s): -0.0003579953003 Af1(s/s): 1.455192e-11 week: 356 ******** Week 356 almanac for PRN-12 ******** ID: 12 Health: 0 Eccentricity: 0.009059429169 Time of Applicability(s): 147456 Orbital Inclination(rad): 0.9587463814 Rate of Right Ascen(r/s): -8.103194673e-09 SQRT(A) (m 1/2): 5153.725586 Right Ascen at Week(rad): 1.539367323 Argument of Perigee(rad): 1.550206306 Mean Anom(rad): -2.658661348 Af0(s): -0.0004800905395 Af1(s/s): 0 week: 356 ******** Week 356 almanac for PRN-13 ******** ID: 13 Health: 0 Eccentricity: 0.009947776794 Time of Applicability(s): 147456 Orbital Inclination(rad): 0.9762912866 Rate of Right Ascen(r/s): -7.840326581e-09 SQRT(A) (m 1/2): 5153.629395 Right Ascen at Week(rad): -0.4762448588 Argument of Perigee(rad): 0.999268267 Mean Anom(rad): 0.5467634087 Af0(s): 0.0005433991821 Af1(s/s): 0 week: 356 ******** Week 356 almanac for PRN-14 ******** ID: 14 Health: 0 Eccentricity: 0.006578445435 Time of Applicability(s): 147456 Orbital Inclination(rad): 0.942100293 Rate of Right Ascen(r/s): -8.274630386e-09 SQRT(A) (m 1/2): 5153.581055 Right Ascen at Week(rad): 1.48515406 Argument of Perigee(rad): -2.759286143 Mean Anom(rad): -2.845927595 Af0(s): 0.000578821875 Af1(s/s): 3.637979e-12 week: 356 ******** Week 356 almanac for PRN-15 ******** ID: 15 Health: 0 Eccentricity: 0.01660966873 Time of Applicability(s): 147456 Orbital Inclination(rad): 0.9424118828 Rate of Right Ascen(r/s): -8.377491813e-09 SQRT(A) (m 1/2): 5153.62793 Right Ascen at Week(rad): -0.7942859645 Argument of Perigee(rad): 1.495875447 Mean Anom(rad): -0.1926992209 Af0(s): 0.0003022234009 Af1(s/s): 3.637979e-12 week: 356 ******** Week 356 almanac for PRN-16 ******** ID: 16 Health: 0 Eccentricity: 0.01505613327 Time of Applicability(s): 147456 Orbital Inclination(rad): 0.9578895093 Rate of Right Ascen(r/s): -8.114623721e-09 SQRT(A) (m 1/2): 5153.568848 Right Ascen at Week(rad): 1.556401026 Argument of Perigee(rad): 0.9251630632 Mean Anom(rad): 1.819984691 Af0(s): 0.0001582716064 Af1(s/s): 7.275958e-12 week: 356 ******** Week 356 almanac for PRN-17 ******** ID: 17 Health: 0 Eccentricity: 0.01273918152 Time of Applicability(s): 147456 Orbital Inclination(rad): 0.9596991273 Rate of Right Ascen(r/s): -7.920329913e-09 SQRT(A) (m 1/2): 5153.519531 Right Ascen at Week(rad): 2.574061333 Argument of Perigee(rad): -1.129399348 Mean Anom(rad): 0.7143208493 Af0(s): -4.069841309e-05 Af1(s/s): -1.091394e-11 week: 356 ******** Week 356 almanac for PRN-18 ******** ID: 18 Health: 0 Eccentricity: 0.005704879761 Time of Applicability(s): 147456 Orbital Inclination(rad): 0.9723604609 Rate of Right Ascen(r/s): -7.611745631e-09 SQRT(A) (m 1/2): 5153.603027 Right Ascen at Week(rad): -2.699412581 Argument of Perigee(rad): -2.858774684 Mean Anom(rad): -1.269678071 Af0(s): -0.0003436754883 Af1(s/s): 1.091394e-11 week: 356 ******** Week 356 almanac for PRN-19 ******** ID: 19 Health: 0 Eccentricity: 0.01103258133 Time of Applicability(s): 147456 Orbital Inclination(rad): 0.9589141605 Rate of Right Ascen(r/s): -7.863184676e-09 SQRT(A) (m 1/2): 5153.657715 Right Ascen at Week(rad): 2.617959175 Argument of Perigee(rad): 2.920787056 Mean Anom(rad): 2.560860335 Af0(s): 0.0005441528564 Af1(s/s): 0 week: 356 ******** Week 356 almanac for PRN-21 ******** ID: 21 Health: 0 Eccentricity: 0.000638961792 Time of Applicability(s): 147456 Orbital Inclination(rad): 0.9621019644 Rate of Right Ascen(r/s): -8.320346576e-09 SQRT(A) (m 1/2): 5153.693359 Right Ascen at Week(rad): -1.651108985 Argument of Perigee(rad): -0.4387102664 Mean Anom(rad): -2.854248018 Af0(s): 0.000309760144 Af1(s/s): 7.275958e-12 week: 356 ******** Week 356 almanac for PRN-22 ******** ID: 22 Health: 0 Eccentricity: 0.01217365265 Time of Applicability(s): 147456 Orbital Inclination(rad): 0.9573262507 Rate of Right Ascen(r/s): -8.114623721e-09 SQRT(A) (m 1/2): 5153.562988 Right Ascen at Week(rad): 1.559745749 Argument of Perigee(rad): -0.9957969613 Mean Anom(rad): 1.36563576 Af0(s): -4.069841309e-05 Af1(s/s): 3.637979e-12 week: 356 ******** Week 356 almanac for PRN-23 ******** ID: 23 Health: 0 Eccentricity: 0.006003856659 Time of Applicability(s): 147456 Orbital Inclination(rad): 0.9872268919 Rate of Right Ascen(r/s): -8.057478483e-09 SQRT(A) (m 1/2): 5153.650391 Right Ascen at Week(rad): -1.692690875 Argument of Perigee(rad): -2.741180601 Mean Anom(rad): -2.38304702 Af0(s): 0.0004800905395 Af1(s/s): 3.637979e-12 week: 356 ******** Week 356 almanac for PRN-24 ******** ID: 24 Health: 0 Eccentricity: 0.01785373688 Time of Applicability(s): 147456 Orbital Inclination(rad): 0.9352632927 Rate of Right Ascen(r/s): -7.886042771e-09 SQRT(A) (m 1/2): 5153.605957 Right Ascen at Week(rad): 0.3136009504 Argument of Perigee(rad): 1.131344537 Mean Anom(rad): -1.050771972 Af0(s): -0.0001092827759 Af1(s/s): 1.455192e-11 week: 356 ******** Week 356 almanac for PRN-25 ******** ID: 25 Health: 0 Eccentricity: 0.01294946671 Time of Applicability(s): 147456 Orbital Inclination(rad): 0.9471037069 Rate of Right Ascen(r/s): -8.217485148e-09 SQRT(A) (m 1/2): 5153.669922 Right Ascen at Week(rad): 1.445812471 Argument of Perigee(rad): 1.153215373 Mean Anom(rad): -2.810613455 Af0(s): 0.0003527195801 Af1(s/s): -3.637979e-12 week: 356 ******** Week 356 almanac for PRN-26 ******** ID: 26 Health: 0 Eccentricity: 0.0109872818 Time of Applicability(s): 147456 Orbital Inclination(rad): 0.9279109707 Rate of Right Ascen(r/s): -8.377491813e-09 SQRT(A) (m 1/2): 5153.633789 Right Ascen at Week(rad): 1.371770559 Argument of Perigee(rad): 0.7050956177 Mean Anom(rad): 2.64698684 Af0(s): -0.0002539882446 Af1(s/s): -7.275958e-12 week: 356 ******** Week 356 almanac for PRN-27 ******** ID: 27 Health: 0 Eccentricity: 0.0142621994 Time of Applicability(s): 147456 Orbital Inclination(rad): 0.9530358982 Rate of Right Ascen(r/s): -7.988904198e-09 SQRT(A) (m 1/2): 5153.606934 Right Ascen at Week(rad): 2.50160059 Argument of Perigee(rad): 0.8720744449 Mean Anom(rad): 0.9041794344 Af0(s): -2.562492676e-05 Af1(s/s): -7.275958e-12 week: 356 ******** Week 356 almanac for PRN-28 ******** ID: 28 Health: 0 Eccentricity: 0.0004057884216 Time of Applicability(s): 147456 Orbital Inclination(rad): 0.9621738697 Rate of Right Ascen(r/s): -7.634603726e-09 SQRT(A) (m 1/2): 5153.735352 Right Ascen at Week(rad): 0.3955101316 Argument of Perigee(rad): 0.2386283884 Mean Anom(rad): -1.913262782 Af0(s): -0.0004755684936 Af1(s/s): 7.275958e-12 week: 356 ******** Week 356 almanac for PRN-29 ******** ID: 29 Health: 0 Eccentricity: 0.003299236298 Time of Applicability(s): 147456 Orbital Inclination(rad): 0.9623536331 Rate of Right Ascen(r/s): -7.874613723e-09 SQRT(A) (m 1/2): 5153.720703 Right Ascen at Week(rad): 2.590694689 Argument of Perigee(rad): 2.743419404 Mean Anom(rad): 0.7793787123 Af0(s): -0.0003022234009 Af1(s/s): 7.275958e-12 week: 356 ******** Week 356 almanac for PRN-30 ******** ID: 30 Health: 0 Eccentricity: 0.007940292358 Time of Applicability(s): 147456 Orbital Inclination(rad): 0.9364617152 Rate of Right Ascen(r/s): -7.851755628e-09 SQRT(A) (m 1/2): 5153.727051 Right Ascen at Week(rad): 0.4129666532 Argument of Perigee(rad): -2.337715191 Mean Anom(rad): -2.161808865 Af0(s): 8.516519775e-05 Af1(s/s): 1.091394e-11 week: 356 ******** Week 356 almanac for PRN-31 ******** ID: 31 Health: 0 Eccentricity: 0.010846138 Time of Applicability(s): 147456 Orbital Inclination(rad): 0.9549653584 Rate of Right Ascen(r/s): -7.703178011e-09 SQRT(A) (m 1/2): 5153.724609 Right Ascen at Week(rad): 0.4456521286 Argument of Perigee(rad): 0.934292421 Mean Anom(rad): -3.112899424 Af0(s): -0.000133400354 Af1(s/s): 3.637979e-12 week: 356 ******** Week 356 almanac for PRN-32 ******** ID: 32 Health: 0 Eccentricity: 0.009250164032 Time of Applicability(s): 147456 Orbital Inclination(rad): 0.9677345501 Rate of Right Ascen(r/s): -8.034620388e-09 SQRT(A) (m 1/2): 5153.67334 Right Ascen at Week(rad): -0.634029913 Argument of Perigee(rad): -2.015053043 Mean Anom(rad): 1.501799774 Af0(s): -8.817989502e-05 Af1(s/s): 1.818989e-11 week: 356